Skip Page Navigation
NASA JPL Caltech
NASA Logo - Jet Propulsion Laboratory + View the NASA Portal
+ Center for Near-Earth Object Studies
JPL Home Earth Solar System Stars & Galaxies Technology
JPL Solar System Dynamics
BODIES ORBITS EPHEMERIDES TOOLS PHYSICAL DATA DISCOVERY FAQ SITE MAP
JPL Small-Body Database Browser
Search: [ help ]  
351491 (2005 QO119)
Classification: Main-belt Asteroid          SPK-ID: 2351491
Ephemeris | Orbit Diagram | Orbital Elements | Mission Design | Physical Parameters | Discovery Circumstances | Close-Approach Data ]

[ show orbit diagram ]
Orbital Elements at Epoch 2459000.5 (2020-May-31.0) TDB
Reference: JPL 11 (heliocentric ecliptic J2000)
 Element Value Uncertainty (1-sigma)   Units 
e .1485728753857899 6.1548e-08  
a 3.165427364291922 3.6822e-08 au
q 2.695130718954208 1.9155e-07 au
i 2.062641709798815 5.5792e-06 deg
node 125.7261174550003 0.00019631 deg
peri 273.0004321848177 0.00019739 deg
M 176.8021752711277 2.0746e-05 deg
tp 2457990.242557088159
(2017-Aug-24.74255709)
0.0001116 TDB
period 2057.059981816043
5.63
3.5893e-05
9.827e-08
d
yr
n .1750070504420487 3.0537e-09 deg/d
Q 3.635724009629635 4.2293e-08 au
  Orbit Determination Parameters
   # obs. used (total)      181  
   data-arc span      7101 days (19.44 yr)  
   first obs. used      2000-11-16  
   last obs. used      2020-04-26  
   planetary ephem.      DE431  
   SB-pert. ephem.      SB431-N16  
   condition code      0  
   norm. resid. RMS      .5998  
   source      ORB  
   producer      Otto Matic  
   solution date      2020-May-21 22:53:05  

Additional Information
 Earth MOID = 1.70383 au 
 Jupiter MOID = 1.78093 au 
 T_jup = 3.185 
[ show covariance matrix ]

Ephemeris | Orbit Diagram | Orbital Elements | Mission Design | Physical Parameters | Discovery Circumstances | Close-Approach Data ]

Physical Parameter Table
Parameter Symbol Value Units Sigma Reference Notes
absolute magnitude H 16.3   n/a MPO434218  

351491 (2005 QO119)          Discovered 2005-Aug-28 by Spacewatch at Kitt Peak
Reference: 20130127/Numbers.arcLast Updated: 2013-01-31

[ hide close-approach data ]
Close-Approach Data   ...sorted by Date/Time (TDB)
Date/Time (TDB) Time Uncertainty
(days_HH:MM)
Body Nominal Distance (au) Minimum Distance (au) Maximum Distance (au) V-relative (km/s) V-infinity (km/s) JD (TDB) Time Uncertainty (minutes) Semi-major axis (km) Semi-minor axis (km) range-LOV angle (deg) N-sigma BP Orbit Ref. Reference Modified
1925-Apr-03 20:56 00:06 Jupiter 1.92416440435038 1.92416303769529 1.92416577100558 3.02849645592832 2.87947655449692 2424244.371915412 5.78566441498524 99.5038536315074 25.2296810497325 75.7127958969008 1195252.28108965 T 11 CATAB v2.0f-lin.ifort 2020-May-21 22:53:07 2020-May-21 22:53
1936-Jan-31 23:05 00:05 Jupiter 1.84914287685662 1.84914205223554 1.84914370147738 2.41766591894066 2.22013153418132 2428199.461937674 4.91202771329155 78.0613729920482 8.64581920396289 89.4992570169115 1375222.4907637 T 11 CATAB v2.0f-lin.ifort 2020-May-21 22:53:07 2020-May-21 22:53
1946-Dec-08 09:47 00:04 Jupiter 1.84891392843541 1.84891333052528 1.84891452634548 2.25748226079999 2.04450195619291 2432162.907564338 4.03374507530672 159.097495133011 6.63167137497939 88.4552229259266 1992465.17313203 T 11 CATAB v2.0f-lin.ifort 2020-May-21 22:53:07 2020-May-21 22:53
1957-Oct-18 23:49 00:03 Jupiter 1.9280943860716 1.92809361257422 1.92809515957095 2.52536159640935 2.34496058460679 2436130.492144832 3.24994189340584 171.375102653705 12.3392104623622 87.1471327621087 2168875.89625333 T 11 CATAB v2.0f-lin.ifort 2020-May-21 22:53:07 2020-May-21 22:53
2044-Jul-10 08:07 00:02 Jupiter 1.95927786294916 1.95927730202867 1.95927842386955 3.41020745941992 3.28098882439085 2467806.838035624 1.59535125539659 74.2457920993945 20.4231475174121 89.4858855555234 2437971.05031663 T 11 CATAB v2.0f-lin.ifort 2020-May-21 22:53:07 2020-May-21 22:53
2055-May-04 04:08 00:02 Jupiter 1.85769693165593 1.85769637082773 1.85769749248392 2.60645501718992 2.4252219955825 2471756.672093118 2.26996312831303 58.4973133733922 14.0878754127368 -86.5403920952767 2048442.91419489 T 11 CATAB v2.0f-lin.ifort 2020-May-21 22:53:07 2020-May-21 22:53
2066-Mar-05 08:20 00:03 Jupiter 1.82625011740054 1.82624943422054 1.82625080058044 2.25022621161875 2.03369357535416 2475714.847441977 2.98758056048032 94.4985529896851 12.9869116534754 84.3483510152631 1980757.39013527 T 11 CATAB v2.0f-lin.ifort 2020-May-21 22:53:07 2020-May-21 22:53
2077-Jan-12 10:40 00:04 Jupiter 1.88359539024419 1.88359437127799 1.88359640921328 2.35867201490152 2.15962169823905 2479680.944189472 3.75670812777762 175.126006207328 12.1980338816995 84.6066144631448 2002040.60386792 T 11 CATAB v2.0f-lin.ifort 2020-May-21 22:53:07 2020-May-21 22:53
2174-Aug-05 17:14 00:10 Jupiter 1.8772021095601 1.87720057547201 1.87720364365236 2.8797444253971 2.71854688014704 2515314.218206700 9.6224020152138 192.758902820033 17.6386976341655 84.881335798613 1441101.12429183 T 11 CATAB v2.0f-lin.ifort 2020-May-21 22:53:07 2020-May-21 22:53
2185-May-31 20:21 00:10 Jupiter 1.81239262338767 1.81239204362066 1.81239320315437 2.31697706821771 2.10563098052776 2519266.348226535 10.1174057029054 88.8568135847711 30.9470229030331 68.7663718793716 1422176.53738859 T 11 CATAB v2.0f-lin.ifort 2020-May-21 22:53:07 2020-May-21 22:53
2196-Apr-06 18:51 00:11 Jupiter 1.84213583923272 1.84213402008339 1.84213765840163 2.24972708003961 2.03510755317904 2523229.285077816 10.7236556043881 355.289167915662 12.0295133430866 82.7950069532686 1945965.31374142 T 11 CATAB v2.0f-lin.ifort 2020-May-21 22:53:07 2020-May-21 22:53
Ephemeris | Orbit Diagram | Orbital Elements | Mission Design | Physical Parameters | Discovery Circumstances | Close-Approach Data ]
ABOUT SSD CREDITS/AWARDS PRIVACY/COPYRIGHT GLOSSARY LINKS
FirstGov 2020-Aug-14 12:35 UT
(server date/time)  
NASA Home Page
Site Manager:   Ryan S. Park
Webmaster  Alan B. Chamberlin